Location: Joffre
(52.3362°N, 113.5373°W)
Time: 13:55:58
(UTC+00:00)

Envisat - Pass Details

Date: 28 November 2021
Orbit: 764 x 766 km, 98.2° (Epoch: 28 January)

Event Time Altitude Azimuth Distance (km) Brightness Sun altitude
Rises 12:33:49 0° 16° (NNE) 3,248 6.4 -24.1°
Reaches altitude 10° 12:36:09 10° 19° (NNE) 2,317 5.6 -23.7°
Maximum altitude 12:41:14 66° 102° (ESE) 838 3.3 -23.0°
Drops below altitude 10° 12:46:17 10° 185° (S) 2,299 5.5 -22.2°
Sets 12:48:36 0° 188° (S) 3,221 6.2 -21.8°
